GW4344 Weather Reports


time (UTC)temp
C
wind
direction
speed
KPH
gust
KPH
rain 1hr
cm
rain 24hr
cm
rain mn
cm
humidity
%
barometer
mb
20260504020114 8 180 0.0 321.9 0.00 0.00 0.00 63 112.0
20260504015614 8 180 0.0 321.9 0.00 0.00 0.00 64 112.0
20260504015114 8 180 0.0 321.9 0.00 0.00 0.00 64 112.0
20260504014613 8 180 0.0 321.9 0.00 0.00 0.00 64 112.0
20260504014113 8 178 0.0 321.9 0.00 0.00 0.00 63 111.9
20260504013613 8 176 0.0 321.9 0.00 0.00 0.00 63 111.9
20260504013112 8 175 0.0 321.9 0.00 0.00 0.00 63 111.9
20260504012611 8 174 0.0 321.9 0.00 0.00 0.00 64 111.8
20260504012111 8 173 0.0 321.9 0.00 0.00 0.00 64 111.8
20260504011610 8 172 0.0 321.9 0.00 0.00 0.00 64 111.9
20260504011109 8 171 0.0 321.9 0.00 0.00 0.00 64 111.8
20260504010608 8 171 0.0 321.9 0.00 0.00 0.00 63 111.8
20260504010108 8 172 0.0 321.9 0.00 0.00 0.00 63 111.9
20260504005607 8 172 0.0 321.9 0.00 0.00 0.00 62 111.8
20260504005107 8 173 0.0 321.9 0.00 0.00 0.00 62 111.8
20260504004606 8 176 0.0 321.9 0.00 0.00 0.00 63 111.9
20260504004105 8 178 0.0 321.9 0.00 0.00 0.00 63 111.9
20260504003604 8 180 0.0 321.9 0.00 0.00 0.00 62 112.0
20260504003104 8 182 0.0 321.9 0.00 0.00 0.00 62 112.0
20260504002603 8 183 0.0 321.9 0.00 0.00 0.00 62 112.0
20260504002103 8 184 0.0 321.9 0.00 0.00 0.00 62 112.1
20260504001602 8 185 0.0 321.9 0.00 0.00 0.00 62 112.1
20260504001101 9 185 0.0 321.9 0.00 0.00 0.00 62 112.1
20260504000600 9 183 0.0 321.9 0.00 0.00 0.00 62 112.0
20260504000059 9 182 0.0 321.9 0.00 0.00 0.00 61 112.0
20260503235558 9 181 0.0 321.9 0.00 0.00 0.00 61 111.9
20260503235057 9 181 0.0 321.9 0.00 0.00 0.00 61 111.9
20260503234556 9 180 0.0 321.9 0.00 0.00 0.00 61 112.0
20260503233024 9 182 0.0 321.9 0.00 0.00 0.00 62 112.0
20260503232524 9 185 0.0 321.9 0.00 0.00 0.00 62 112.0
20260503232024 9 189 0.0 321.9 0.00 0.00 0.00 62 112.1
20260503231524 10 193 0.0 321.9 0.00 0.00 0.00 61 112.2
20260503231023 10 195 0.0 321.9 0.00 0.00 0.00 60 112.3
20260503230522 10 199 0.0 321.9 0.00 0.00 0.00 59 112.4
20260503230021 10 201 0.0 321.9 0.00 0.00 0.00 59 112.4
20260503225520 10 200 0.0 321.9 0.00 0.00 0.00 60 112.4
20260503224504 10 200 0.0 321.9 0.00 0.00 0.00 58 112.4
20260503224003 10 202 0.0 321.9 0.00 0.00 0.00 56 112.5
20260503223502 10 203 0.0 321.9 0.00 0.00 0.00 55 112.5
20260503223001 10 206 0.0 321.9 0.00 0.00 0.00 55 112.6
20260503222500 10 208 0.0 321.9 0.00 0.00 0.00 55 112.6
20260503221959 9 211 0.0 321.9 0.00 0.00 0.00 54 112.7
20260503221458 9 215 0.0 321.9 0.00 0.00 0.00 55 112.8
20260503220957 9 220 0.0 321.9 0.00 0.00 0.00 55 112.9
20260503215940 10 230 0.0 321.9 0.00 0.00 0.00 55 113.1
20260503215439 10 235 0.0 321.9 0.00 0.00 0.00 55 113.2
20260503213906 10 245 0.0 321.9 0.00 0.00 0.00 54 113.4
20260503213405 11 246 0.0 321.9 0.00 0.00 0.00 52 113.4
20260503212904 11 246 0.0 321.9 0.00 0.00 0.00 52 113.4
20260503212404 11 248 0.0 321.9 0.00 0.00 0.00 51 113.4
20260503211903 11 250 0.0 321.9 0.00 0.00 0.00 50 113.5
20260503211402 11 253 0.0 321.9 0.00 0.00 0.00 51 113.5
20260503210901 11 254 0.0 321.9 0.00 0.00 0.00 51 113.6
20260503210401 11 254 0.0 321.9 0.00 0.00 0.00 53 113.5
20260503205900 11 253 0.0 321.9 0.00 0.00 0.69 55 113.5
20260503205359 11 251 0.0 321.9 0.00 0.00 0.69 54 113.5
20260503204858 11 248 0.0 321.9 0.00 0.00 0.69 54 113.4
20260503204357 11 243 0.0 321.9 0.00 0.00 0.69 54 113.4
20260503203856 11 238 0.0 321.9 0.00 0.00 0.69 55 113.2
20260503203355 11 231 0.0 321.9 0.00 0.00 0.69 54 113.1
20260503202338 11 228 0.0 321.9 0.00 0.00 0.69 53 113.0
20260503201838 10 230 0.0 321.9 0.00 0.00 0.69 54 113.0
20260503201338 10 235 0.0 321.9 0.00 0.00 0.69 54 113.1
20260503200837 10 237 0.0 321.9 0.00 0.00 0.69 54 113.2
20260503200336 10 236 0.0 321.9 0.00 0.00 0.69 55 113.2
20260503195835 10 236 0.0 321.9 0.00 0.00 0.69 58 113.2
20260503195334 10 237 0.0 321.9 0.00 0.00 0.69 55 113.2
20260503194833 10 239 0.0 321.9 0.00 0.00 0.69 55 113.3
20260503194332 10 242 0.0 321.9 0.00 0.00 0.69 56 113.3
20260503193831 11 245 0.0 321.9 0.00 0.00 0.69 55 113.4
20260503193330 11 248 0.0 321.9 0.00 0.00 0.69 55 113.4
20260503192830 11 253 0.0 321.9 0.00 0.00 0.69 54 113.5
20260503192329 11 257 0.0 321.9 0.00 0.00 0.69 52 113.6
20260503191313 12 266 0.0 321.9 0.00 0.00 0.69 51 113.8
20260503190256 12 278 0.0 321.9 0.00 0.00 0.69 51 114.1
20260503185755 12 283 0.0 321.9 0.00 0.00 0.69 53 114.2
20260503185254 12 287 0.0 321.9 0.00 0.00 0.69 52 114.3
20260503184753 12 293 0.0 321.9 0.00 0.00 0.69 51 114.5
20260503184253 12 307 0.0 321.9 0.00 0.00 0.69 51 114.8
20260503183752 12 324 0.0 321.9 0.00 0.00 0.69 52 115.2
20260503183251 12 338 0.0 321.9 0.00 0.00 0.69 51 115.4
20260503182750 12 347 0.0 321.9 0.00 0.00 0.69 50 115.6
20260503182250 13 351 0.0 321.9 0.00 0.00 0.69 49 115.8
20260503181749 13 356 0.0 321.9 0.00 0.00 0.69 47 115.9
20260503181248 13 359 0.0 321.9 0.00 0.00 0.69 44 116.0
20260503180231 13 6 0.0 321.9 0.00 0.00 0.69 43 116.1
20260503175214 13 16 0.0 321.9 0.00 0.00 0.69 43 116.4
20260503174714 13 24 0.0 321.9 0.00 0.00 0.69 45 116.5
20260503174212 13 37 0.0 321.9 0.00 0.00 0.69 43 116.8
20260503173711 14 52 0.0 321.9 0.00 0.00 0.69 42 117.1
20260503173211 14 69 0.0 321.9 0.00 0.00 0.69 41 117.4
20260503171639 15 99 0.0 321.9 0.00 0.00 0.69 41 118.1
20260503171138 15 106 0.0 321.9 0.00 0.00 0.69 40 118.3
20260503170637 15 122 0.0 321.9 0.00 0.00 0.69 42 118.6
20260503170138 16 144 0.0 321.9 0.00 0.00 0.69 39 119.1
20260503151005 17 191 0.0 321.9 0.00 0.00 0.69 34 120.3
20260503150505 17 192 0.0 321.9 0.00 0.00 0.69 34 120.3
20260503131404 16 76 0.0 321.9 0.00 0.00 0.69 44 117.8
20260503130902 16 79 0.0 321.9 0.00 0.00 0.69 45 117.8
20260503130403 16 83 0.0 321.9 0.00 0.00 0.69 45 118.0
20260503110803 15 118 0.0 321.9 0.00 0.00 0.69 45 118.8
20260503110302 15 116 0.0 321.9 0.00 0.00 0.69 48 118.8
20260503100223 13 2 0.0 321.9 0.00 0.00 0.69 55 116.3
20260503081610 14 72 0.0 321.9 0.00 0.00 0.69 48 118.3
20260503081110 14 43 0.0 321.9 0.00 0.00 0.69 46 117.9
20260503080609 14 20 0.0 321.9 0.00 0.00 0.69 50 117.2
20260503080109 13 353 0.0 321.9 0.00 0.00 0.69 47 116.7
20260503072605 11 271 0.0 321.9 0.00 0.00 0.69 58 114.2
20260503072105 11 268 0.0 321.9 0.00 0.00 0.69 58 114.1
20260503071604 11 263 0.0 321.9 0.00 0.00 0.69 57 114.0
20260503071103 11 261 0.0 321.9 0.00 0.00 0.69 59 113.9
20260503070602 11 261 0.0 321.9 0.00 0.00 0.69 56 114.0
20260503055035 9 149 0.0 321.9 0.00 0.00 0.69 85 111.5
20260503054534 8 144 0.0 321.9 0.00 0.00 0.69 85 111.5
20260503054033 8 140 0.0 321.9 0.00 0.00 0.69 85 111.3
20260503053532 8 142 0.0 321.9 0.00 0.00 0.69 85 111.3
20260503053031 8 144 0.0 321.9 0.00 0.00 0.69 86 111.3
20260503052531 8 150 0.0 321.9 0.08 0.00 0.69 87 111.5
20260503052030 8 161 0.0 321.9 0.08 0.00 0.69 86 111.7
20260503051530 8 168 0.0 321.9 0.28 0.00 0.69 86 111.9
20260503051030 8 166 0.0 321.9 0.28 0.00 0.69 86 111.8
20260503050529 8 162 0.0 321.9 0.38 0.00 0.69 86 111.7
20260503050028 8 156 0.0 321.9 0.38 0.00 0.69 86 111.5
20260503045527 8 149 0.0 321.9 0.38 0.00 0.69 86 111.4
20260503043953 8 137 0.0 321.9 0.38 0.00 0.69 86 111.0
20260503043452 8 143 0.0 321.9 0.38 0.00 0.69 85 111.1
20260503042951 8 153 0.0 321.9 0.38 0.00 0.69 84 111.3
20260503042450 8 160 0.0 321.9 0.28 0.00 0.58 83 111.5
20260503041949 8 170 0.0 321.9 0.28 0.00 0.58 82 111.8
20260503040932 8 180 0.0 321.9 0.08 0.00 0.38 81 112.1
20260503040431 8 187 0.0 321.9 0.00 0.00 0.28 81 112.2
20260503035930 8 195 0.0 321.9 0.00 0.00 0.28 80 112.4
20260503035429 8 200 0.0 321.9 0.00 0.00 0.28 80 112.6
20260503034928 8 204 0.0 321.9 0.00 0.00 0.28 81 112.7
20260503034427 8 204 0.0 321.9 0.00 0.00 0.28 81 112.6
20260503033926 8 198 0.0 321.9 0.00 0.00 0.28 81 112.5
20260503033425 8 190 0.0 321.9 0.00 0.00 0.28 80 112.3
20260503032924 8 181 0.0 321.9 0.00 0.00 0.28 79 112.1
20260503032423 8 173 0.0 321.9 0.00 0.00 0.28 78 112.0
20260503030335 8 172 0.0 321.9 0.00 0.00 0.28 80 111.8
20260503025319 8 171 0.0 321.9 0.00 0.00 0.28 80 111.8
20260503024818 8 168 0.0 321.9 0.00 0.00 0.28 81 111.7
20260503024317 8 164 0.0 321.9 0.00 0.00 0.28 81 111.7
20260503022229 7 138 0.0 321.9 0.00 0.00 0.28 80 111.0
20260503021728 7 138 0.0 321.9 0.00 0.00 0.28 80 111.1
20260503021227 7 141 0.0 321.9 0.00 0.00 0.28 81 111.1
20260503020726 7 144 0.0 321.9 0.00 0.00 0.28 81 111.2